, MS

(GMT )
West Delta

Weather History for KDLP - February, 2014

Change the Weather History Date:

Tuesday, February 4, 2014

  Actual Average Record
Temperature  
Mean Temperature 62 °F -  
Max Temperature 73 °F - - ()
Min Temperature 51 °F - - ()
Degree Days  
Heating Degree Days 3    
Growing Degree Days 12 (Base 50)    
Moisture  
Dew Point 62 °F    
Average Humidity 99    
Maximum Humidity 100    
Minimum Humidity 83    
Precipitation  
Precipitation 0.00 in - - ()
Sea Level Pressure  
Sea Level Pressure 29.96 in    
Wind  
Wind Speed 15 mph (SE)    
Max Wind Speed 24 mph    
Max Gust Speed 28 mph    
Visibility 1 miles    
Events Fog    
Averages and records for this station are not official NWS values.
T = Trace of Precipitation, MM = Missing Value Source: NWS Daily Summary

Daily Weather History Graph

Daily Weather History Graph

Search for Another Location

Airport or City:

Trip Planner

Search our weather history database for the weather conditions in past years. The results will help you decide how hot, cold, wet, or windy it might be!

Date:

Astronomy

Feb. 04, 2014 Rise Set
Actual Time 6:45 AM CST 5:39 PM CST
Civil Twilight 6:20 AM CST 6:04 PM CST
Nautical Twilight 5:52 AM CST 6:32 PM CST
Astronomical Twilight 5:24 AM CST 7:00 PM CST
Moon 9:52 AM CST (2/4) 11:01 PM CST (2/4)
Length of Visible Light 11h 43m
Length of Day
10h 54m
Waxing Crescent, 29% of the Moon is Illuminated
Feb 4
Waxing Crescent
Feb 6
First Quarter
Feb 14
Full
Feb 22
Last Quarter
Mar 1
New

Hourly Weather History & Observations

Time (CST) Temp. Dew Point Humidity Pressure Visibility Wind Dir Wind Speed Gust Speed Precip Events Conditions
12:15 AM 51.8 °F 50.0 °F 94% 30.06 in 0.5 mi East 8.1 mph 17.3 mph N/A Fog Fog
12:35 AM 51.8 °F 50.0 °F 94% 30.06 in 0.5 mi East 10.4 mph 17.3 mph N/A Fog Fog
12:55 AM 51.8 °F 50.0 °F 94% 30.05 in 0.2 mi ENE 11.5 mph 21.9 mph N/A Fog Fog
1:15 AM 51.8 °F 51.8 °F 100% 30.05 in 0.2 mi ENE 11.5 mph 24.2 mph N/A Fog Fog
1:35 AM 51.8 °F 51.8 °F 100% 30.04 in 0.2 mi ENE 11.5 mph 21.9 mph N/A Fog Fog
1:55 AM 51.8 °F 51.8 °F 100% 30.04 in 0.2 mi East 13.8 mph 20.7 mph N/A Fog Fog
2:15 AM 51.8 °F 51.8 °F 100% 30.03 in 0.2 mi ENE 15.0 mph 23.0 mph N/A Fog Fog
2:35 AM 51.8 °F 51.8 °F 100% 30.03 in 0.2 mi ENE 13.8 mph 20.7 mph N/A Fog Fog
2:55 AM 51.8 °F 51.8 °F 100% 30.02 in 0.2 mi ENE 16.1 mph - N/A Fog Fog
3:15 AM 53.6 °F 53.6 °F 100% 30.02 in 0.2 mi ENE 15.0 mph 21.9 mph N/A Fog Fog
3:35 AM 53.6 °F 53.6 °F 100% 30.02 in 0.2 mi East 12.7 mph 18.4 mph N/A Fog Fog
3:55 AM 53.6 °F 53.6 °F 100% 30.01 in 0.2 mi ENE 13.8 mph 20.7 mph N/A Fog Fog
4:15 AM 53.6 °F 53.6 °F 100% 30.01 in 0.2 mi ENE 13.8 mph 19.6 mph N/A Fog Fog
4:35 AM 53.6 °F 53.6 °F 100% 30.01 in 0.2 mi East 13.8 mph - N/A Fog Fog
4:55 AM 53.6 °F 53.6 °F 100% 30.01 in 0.2 mi ENE 12.7 mph 18.4 mph N/A Fog Fog
5:15 AM 55.4 °F 55.4 °F 100% 30.01 in 0.2 mi East 12.7 mph - N/A Fog Fog
5:35 AM 55.4 °F 55.4 °F 100% 30.01 in 0.2 mi East 15.0 mph - N/A Fog Fog
5:55 AM 55.4 °F 55.4 °F 100% 30.00 in 0.2 mi East 17.3 mph - N/A Fog Fog
6:15 AM 55.4 °F 55.4 °F 100% 30.00 in 0.2 mi East 17.3 mph - N/A Fog Fog
6:35 AM 55.4 °F 55.4 °F 100% 30.01 in 0.2 mi East 18.4 mph - N/A Fog Fog
6:55 AM 55.4 °F 55.4 °F 100% 30.00 in 0.2 mi East 19.6 mph - N/A Fog Fog
7:15 AM 55.4 °F 55.4 °F 100% 30.01 in 0.2 mi East 15.0 mph - N/A Fog Fog
7:35 AM 55.4 °F 55.4 °F 100% 30.01 in 0.2 mi East 19.6 mph - N/A Fog Fog
7:55 AM 57.2 °F 57.2 °F 100% 30.00 in 0.2 mi East 21.9 mph - N/A Fog Fog
8:15 AM 57.2 °F 57.2 °F 100% 30.00 in 0.2 mi East 21.9 mph - N/A Fog Fog
8:35 AM 60.8 °F 60.8 °F 100% 30.00 in 0.2 mi East 20.7 mph - N/A Fog Fog
8:55 AM 62.6 °F 60.8 °F 94% 30.00 in 0.2 mi ESE 20.7 mph - N/A Fog Fog
9:15 AM 62.6 °F 60.8 °F 94% 30.00 in 0.2 mi ESE 19.6 mph - N/A Fog Fog
9:35 AM 64.4 °F 62.6 °F 94% 30.00 in 0.2 mi ESE 20.7 mph - N/A Fog Fog
9:55 AM 64.4 °F 62.6 °F 94% 30.00 in 0.2 mi ESE 19.6 mph - N/A Fog Fog
10:15 AM 64.4 °F 64.4 °F 100% 30.00 in 0.2 mi ESE 19.6 mph - N/A Fog Fog
10:35 AM 62.6 °F 62.6 °F 100% 30.00 in 0.2 mi North - - N/A Fog Fog
10:55 AM 64.4 °F 64.4 °F 100% 29.99 in 0.2 mi North - - N/A Fog Fog
11:15 AM 66.2 °F 66.2 °F 100% 29.98 in 0.2 mi SSE 8.1 mph 16.1 mph N/A Fog Fog
11:35 AM 66.2 °F 66.2 °F 100% 29.96 in 0.2 mi SSE 6.9 mph 16.1 mph N/A Fog Fog
11:55 AM 66.2 °F 66.2 °F 100% 29.96 in 0.2 mi SSE 9.2 mph 15.0 mph N/A Fog Fog
12:15 PM 68.0 °F 68.0 °F 100% 29.95 in 0.2 mi SSE 8.1 mph - N/A Fog Fog
12:35 PM 68.0 °F 68.0 °F 100% 29.94 in 0.2 mi SSE 11.5 mph - N/A Fog Fog
12:55 PM 68.0 °F 68.0 °F 100% 29.93 in 0.8 mi SSE 13.8 mph 20.7 mph N/A   Overcast
1:15 PM 66.2 °F 66.2 °F 100% 29.92 in 0.2 mi SSE 21.9 mph - N/A Fog Fog
1:35 PM 68.0 °F 68.0 °F 100% 29.92 in 0.2 mi SSE 23.0 mph - N/A Fog Fog
1:55 PM 68.0 °F 68.0 °F 100% 29.91 in 0.2 mi SSE 21.9 mph - N/A Fog Fog
2:15 PM 68.0 °F 68.0 °F 100% 29.91 in 1.8 mi SSE 20.7 mph - N/A   Overcast
2:35 PM 68.0 °F 68.0 °F 100% 29.89 in 2.5 mi SSE 15.0 mph 21.9 mph N/A   Mostly Cloudy
2:55 PM 68.0 °F 68.0 °F 100% 29.89 in 2.5 mi SSE 15.0 mph - N/A   Overcast
3:15 PM 68.0 °F 68.0 °F 100% 29.88 in 2.5 mi SSE 24.2 mph - N/A   Overcast
3:35 PM 68.0 °F 68.0 °F 100% 29.88 in 2.0 mi SSE 23.0 mph - N/A   Overcast
3:55 PM 68.0 °F 68.0 °F 100% 29.88 in 2.5 mi SSE 24.2 mph - N/A   Overcast
4:15 PM 68.0 °F 68.0 °F 100% 29.88 in 2.0 mi SSE 20.7 mph - N/A   Overcast
4:35 PM 68.0 °F 68.0 °F 100% 29.89 in 3.0 mi SSE 19.6 mph - N/A   Overcast
4:55 PM 68.0 °F 68.0 °F 100% 29.89 in 5.0 mi South 21.9 mph - N/A   Overcast
5:15 PM 68.0 °F 68.0 °F 100% 29.90 in 4.0 mi South 19.6 mph - N/A   Overcast
5:35 PM 68.0 °F 68.0 °F 100% 29.90 in 3.0 mi South 18.4 mph - N/A   Overcast
5:55 PM 68.0 °F 68.0 °F 100% 29.90 in - South 20.7 mph - N/A   Overcast
6:15 PM 69.8 °F 69.8 °F 100% 29.89 in 3.0 mi South 23.0 mph - N/A   Overcast
6:35 PM 68.0 °F 68.0 °F 100% 29.90 in 0.5 mi South 18.4 mph - N/A Fog Fog
6:55 PM 68.0 °F 68.0 °F 100% 29.90 in 1.0 mi South 23.0 mph - N/A   Overcast
7:15 PM 68.0 °F 68.0 °F 100% 29.90 in 0.8 mi South 17.3 mph - N/A   Overcast
7:35 PM 68.0 °F 68.0 °F 100% 29.89 in 0.5 mi South 24.2 mph - N/A   Overcast
7:55 PM 69.8 °F 69.8 °F 100% 29.91 in 0.2 mi South 12.7 mph - N/A Fog Fog
8:15 PM 73.4 °F 68.0 °F 83% 29.92 in 1.5 mi South 17.3 mph - N/A   Haze
8:35 PM 69.8 °F 68.0 °F 94% 29.93 in 2.0 mi South 13.8 mph - N/A   Overcast
8:55 PM 69.8 °F 69.8 °F 100% 29.92 in 2.5 mi South 15.0 mph - N/A   Overcast
9:15 PM 69.8 °F 69.8 °F 100% 29.92 in 1.2 mi South 15.0 mph - N/A   Overcast
9:35 PM 69.8 °F 69.8 °F 100% 29.92 in 1.2 mi SSW 16.1 mph - N/A   Overcast
9:55 PM 69.8 °F 69.8 °F 100% 29.92 in 0.2 mi SSW 19.6 mph - N/A Fog Fog
10:10 PM 68.0 °F 68.0 °F 100% 29.93 in 0.5 mi SW 12.7 mph 20.7 mph N/A Fog Fog
10:35 PM 68.0 °F 68.0 °F 100% 29.94 in 0.2 mi SW 18.4 mph - N/A Fog Fog
10:50 PM 69.8 °F 69.8 °F 100% 29.95 in 0.5 mi SW 20.7 mph - N/A Fog Fog
11:15 PM 68.0 °F 68.0 °F 100% 29.95 in 0.5 mi SW 19.6 mph - N/A   Overcast
11:35 PM 68.0 °F 68.0 °F 100% 29.94 in 1.5 mi SW 21.9 mph - N/A   Overcast
11:55 PM 66.2 °F 66.2 °F 100% 29.96 in 0.2 mi WNW 8.1 mph 27.6 mph N/A Fog Fog